{"data":{"norad_id":52549,"intl_designator":"2022-051S","name":"STARLINK-3935","alt_names":[],"object_type":"PAYLOAD","status":"ACTIVE","operator":null,"country":"US","launch_date":"2022-05-13","launch_site_code":"AFWTR","launch_vehicle":null,"mission":null,"orbit_class":"UNKNOWN","rcs_meters":null,"size_class":null,"mass_kg":null,"dimensions":null,"purposes":["comms"],"wikipedia_slug":null,"has_3d_model":false,"image_url":null,"decayed_at":null,"tle_current":{"epoch":"2026-09-19T19:42:16.200576Z","epoch_age_seconds":122024,"freshness":"FRESH","line1":"1 52549U 22051S   26262.82102084  .00000829  00000+0  34662-4 0  9991","line2":"2 52549  53.1596 324.9936 0001276  86.7690 273.3460 15.35398948240921","mean_motion":15.35398948,"eccentricity":0.0001276,"inclination_deg":53.1596,"raan_deg":324.9936,"arg_perigee_deg":86.769,"mean_anomaly_deg":273.346,"bstar":3.4662e-5,"rev_number":24092,"period_min":93.786699663676,"perigee_km":458.86325355027,"apogee_km":460.60827868018,"semimajor_km":6837.8727661152,"source":"CELESTRAK","updated_at":"2026-09-20T09:00:40.060966Z"}}}